Weather History for Valparaiso, IN

Change the Weather History Date:

Wednesday, February 20, 2013

  Actual Average Record
Temperature  
Mean Temperature 17 °F 29 °F  
Max Temperature 24 °F 37 °F 54 °F (2002)
Min Temperature 10 °F 21 °F 7 °F (2009)
Degree Days  
Heating Degree Days 48 36  
Month to date heating degree days 703 773  
Since 1 July heating degree days 4064 4458  
Cooling Degree Days 0 0  
Month to date cooling degree days 0 0  
Year to date cooling degree days 0 0  
Moisture  
Dew Point 10 °F    
Average Humidity 72    
Maximum Humidity 80    
Minimum Humidity 60    
Precipitation  
Precipitation T in 0.05 in 1.31 in (2014)
Month to date precipitation 0.59 1.00  
Year to date precipitation 2.88 2.75  
Sea Level Pressure  
Sea Level Pressure 30.30 in    
Wind  
Wind Speed 9 mph (NW)    
Max Wind Speed 17 mph    
Max Gust Speed 20 mph    
Visibility 7 miles    
Events Snow    
T = Trace of Precipitation, MM = Missing Value Source: NWS Daily Summary

Daily Weather History Graph

Daily Weather History Graph

Search for Another Location

Airport:

Trip Planner

Search our weather history database for the weather conditions in past years. The results will help you decide how hot, cold, wet, or windy it might be!

Date:

Astronomy

Feb. 20, 2013 Rise Set
Actual Time 6:35 AM CST 5:28 PM CST
Civil Twilight 6:07 AM CST 5:56 PM CST
Nautical Twilight 5:35 AM CST 6:28 PM CST
Astronomical Twilight 5:03 AM CST 7:00 PM CST
Moon 12:47 PM CST (2/20) 2:57 AM CST (2/20)
Length of Visible Light 11h 48m
Length of Day
10h 52m
Waxing Gibbous, 76% of the Moon is Illuminated
Feb 20
Waxing Gibbous
Feb 25
Full
Mar 4
Last Quarter
Mar 11
New
Mar 19
First Quarter

Hourly Weather History & Observations

Time (CST) Temp. Windchill Dew Point Humidity Pressure Visibility Wind Dir Wind Speed Gust Speed Precip Events Conditions
12:39 AM 12.2 °F -4.3 °F 6.8 °F 79% 30.15 in 2.0 mi West 16.1 mph - 0.00 in Snow Light Snow
12:53 AM 12.0 °F -5.1 °F 7.0 °F 80% 30.21 in 2.5 mi West 17.3 mph - 0.00 in Snow Light Snow
1:00 AM 12.2 °F -3.1 °F 6.8 °F 79% 30.16 in 4.0 mi West 13.8 mph - 0.00 in Snow Light Snow
1:53 AM 12.0 °F -2.7 °F 6.1 °F 77% 30.22 in 10.0 mi West 12.7 mph - 0.00 in   Overcast
2:53 AM 10.9 °F -4.7 °F 3.9 °F 73% 30.24 in 10.0 mi West 13.8 mph - N/A   Overcast
3:53 AM 10.9 °F -4.7 °F 5.0 °F 77% 30.25 in 8.0 mi West 13.8 mph - N/A   Overcast
4:53 AM 10.9 °F -4.7 °F 3.9 °F 73% 30.27 in 6.0 mi West 13.8 mph - 0.00 in Snow Light Snow
5:53 AM 10.9 °F -2.6 °F 3.9 °F 73% 30.27 in 10.0 mi WNW 10.4 mph - 0.00 in   Overcast
7:53 AM 12.0 °F -1.3 °F 5.0 °F 73% 30.30 in 7.0 mi WNW 10.4 mph - 0.00 in   Overcast
8:44 AM 14.0 °F 2.0 °F 6.8 °F 73% 30.26 in 2.5 mi WNW 9.2 mph - 0.00 in Snow Light Snow
8:53 AM 14.0 °F 1.2 °F 8.1 °F 77% 30.31 in 3.0 mi West 10.4 mph - 0.00 in Snow Light Snow
9:14 AM 15.8 °F 2.7 °F 8.6 °F 73% 30.27 in 2.0 mi WNW 11.5 mph - 0.00 in Snow Light Snow
9:53 AM 15.1 °F 0.5 °F 8.1 °F 74% 30.33 in 2.5 mi West 13.8 mph - 0.00 in Snow Light Snow
10:17 AM 15.8 °F 3.4 °F 8.6 °F 73% 30.29 in 3.0 mi WNW 10.4 mph - 0.00 in Snow Light Snow
10:53 AM 17.1 °F 3.6 °F 9.0 °F 71% 30.35 in 4.0 mi WNW 12.7 mph - 0.00 in Snow Light Snow
11:53 AM 19.0 °F 6.8 °F 9.0 °F 65% 30.34 in 9.0 mi WNW 11.5 mph 19.6 mph 0.00 in   Overcast
12:53 PM 21.0 °F 11.4 °F 10.0 °F 63% 30.35 in 10.0 mi NNW 8.1 mph - 0.00 in   Overcast
1:53 PM 21.9 °F 13.4 °F 10.9 °F 63% 30.36 in 10.0 mi Variable 6.9 mph - N/A   Partly Cloudy
2:53 PM 23.0 °F 13.1 °F 10.9 °F 60% 30.35 in 10.0 mi North 9.2 mph - N/A   Clear
3:53 PM 23.0 °F 13.9 °F 10.9 °F 60% 30.34 in 10.0 mi North 8.1 mph - N/A   Clear
4:53 PM 21.0 °F 12.4 °F 10.9 °F 65% 30.35 in 10.0 mi North 6.9 mph - N/A   Clear
5:53 PM 19.9 °F - 12.9 °F 74% 30.37 in 10.0 mi Calm Calm - N/A   Scattered Clouds
6:06 PM 19.4 °F 14.3 °F 12.2 °F 74% 30.33 in 10.0 mi North 3.5 mph - N/A   Mostly Cloudy
6:53 PM 21.0 °F 14.6 °F 14.0 °F 74% 30.36 in 10.0 mi NNE 4.6 mph - N/A   Overcast
7:53 PM 21.9 °F 13.4 °F 14.0 °F 72% 30.37 in 10.0 mi Variable 6.9 mph - N/A   Overcast
8:53 PM 21.9 °F 14.5 °F 15.1 °F 75% 30.36 in 10.0 mi North 5.8 mph - N/A   Overcast
9:53 PM 23.0 °F 18.4 °F 17.1 °F 78% 30.36 in 10.0 mi North 3.5 mph - 0.00 in   Overcast
10:53 PM 24.1 °F - 17.1 °F 75% 30.35 in 10.0 mi Calm Calm - N/A   Overcast
11:53 PM 24.1 °F - 18.0 °F 77% 30.35 in 10.0 mi Calm Calm - N/A   Overcast